Auburn, IN

7:56 PM EDT on April 23, 2017 (GMT -0400)
Auburn

Weather History for KGWB - October, 2012

Change the Weather History Date:

Sunday, October 28, 2012

  Actual Average (KFWA) Record (KFWA)
Temperature  
Mean Temperature 40 °F -  
Max Temperature 46 °F 58 °F 83 °F (1927)
Min Temperature 35 °F 38 °F 22 °F (1976)
Degree Days  
Heating Degree Days 24    
Moisture  
Dew Point 30 °F    
Average Humidity 67    
Maximum Humidity 81    
Minimum Humidity 53    
Precipitation  
Precipitation 0.00 in - - ()
Sea Level Pressure  
Sea Level Pressure 30.16 in    
Wind  
Wind Speed 9 mph (North)    
Max Wind Speed 17 mph    
Max Gust Speed 26 mph    
Visibility 10 miles    
Events      
Averages and records for this station are not official NWS values.
T = Trace of Precipitation, MM = Missing Value Source: NWS Daily Summary

Daily Weather History Graph

Daily Weather History Graph

Search for Another Location

Airport or City:

Trip Planner

Search our weather history database for the weather conditions in past years. The results will help you decide how hot, cold, wet, or windy it might be!

Date:

Astronomy

Oct. 28, 2012 Rise Set
Actual Time 8:07 AM EDT 6:39 PM EDT
Civil Twilight 7:38 AM EDT 7:08 PM EDT
Nautical Twilight 7:06 AM EDT 7:40 PM EDT
Astronomical Twilight 6:34 AM EDT 8:12 PM EDT
Moon 5:57 PM EDT (10/28) 6:59 AM EDT (10/28)
Length of Visible Light 11h 29m
Length of Day
10h 32m
Waxing Gibbous, 99% of the Moon is Illuminated
Oct 28
Waxing Gibbous
Oct 29
Full
Nov 6
Last Quarter
Nov 13
New
Nov 20
First Quarter

Hourly Weather History & Observations

Time (EDT) Temp. Windchill Dew Point Humidity Pressure Visibility Wind Dir Wind Speed Gust Speed Precip Events Conditions
12:15 AM 39.2 °F 35.0 °F 32.0 °F 75% 30.19 in 10.0 mi NE 5.8 mph - N/A   Clear
12:35 AM 39.2 °F 35.9 °F 32.0 °F 75% 30.19 in 10.0 mi North 4.6 mph - N/A   Clear
12:55 AM 39.2 °F 34.2 °F 32.0 °F 75% 30.18 in 10.0 mi NNE 6.9 mph - N/A   Clear
1:15 AM 39.2 °F 34.2 °F 30.2 °F 70% 30.17 in 10.0 mi NNE 6.9 mph - N/A   Clear
1:35 AM 39.2 °F 34.2 °F 32.0 °F 75% 30.18 in 10.0 mi NE 6.9 mph - N/A   Clear
1:55 AM 37.4 °F 33.8 °F 32.0 °F 81% 30.19 in 10.0 mi NE 4.6 mph - N/A   Clear
2:15 AM 37.4 °F 33.8 °F 30.2 °F 75% 30.19 in 10.0 mi NE 4.6 mph - N/A   Clear
2:35 AM 35.6 °F 32.8 °F 30.2 °F 81% 30.19 in 10.0 mi NNE 3.5 mph - N/A   Clear
2:55 AM 35.6 °F 31.7 °F 30.2 °F 81% 30.19 in 10.0 mi North 4.6 mph - N/A   Clear
3:15 AM 35.6 °F 31.7 °F 30.2 °F 81% 30.19 in 10.0 mi North 4.6 mph - N/A   Clear
3:35 AM 35.6 °F 30.7 °F 30.2 °F 81% 30.19 in 10.0 mi North 5.8 mph - N/A   Clear
3:55 AM 35.6 °F 29.2 °F 30.2 °F 81% 30.18 in 10.0 mi North 8.1 mph - N/A   Clear
4:15 AM 37.4 °F 30.8 °F 30.2 °F 75% 30.17 in 10.0 mi North 9.2 mph - N/A   Clear
4:35 AM 37.4 °F 30.8 °F 30.2 °F 75% 30.18 in 10.0 mi North 9.2 mph - N/A   Clear
4:55 AM 37.4 °F 30.8 °F 32.0 °F 81% 30.18 in 10.0 mi North 9.2 mph - N/A   Clear
5:15 AM 37.4 °F 30.8 °F 30.2 °F 75% 30.19 in 10.0 mi North 9.2 mph - N/A   Scattered Clouds
5:35 AM 37.4 °F 29.8 °F 30.2 °F 75% 30.19 in 10.0 mi North 11.5 mph - N/A   Scattered Clouds
5:55 AM 37.4 °F 29.3 °F 30.2 °F 75% 30.19 in 10.0 mi North 12.7 mph 17.3 mph N/A   Mostly Cloudy
6:15 AM 37.4 °F 29.3 °F 30.2 °F 75% 30.19 in 10.0 mi North 12.7 mph 17.3 mph N/A   Scattered Clouds
6:35 AM 37.4 °F 30.8 °F 30.2 °F 75% 30.19 in 10.0 mi North 9.2 mph 17.3 mph N/A   Clear
6:55 AM 35.6 °F 28.0 °F 30.2 °F 81% 30.19 in 10.0 mi North 10.4 mph 17.3 mph N/A   Clear
7:15 AM 35.6 °F 28.0 °F 30.2 °F 81% 30.19 in 10.0 mi North 10.4 mph - N/A   Clear
7:35 AM 35.6 °F 27.5 °F 30.2 °F 81% 30.19 in 10.0 mi North 11.5 mph - N/A   Clear
7:55 AM 35.6 °F 26.6 °F 30.2 °F 81% 30.19 in 10.0 mi North 13.8 mph 17.3 mph N/A   Clear
8:15 AM 35.6 °F 27.5 °F 30.2 °F 81% 30.19 in 10.0 mi North 11.5 mph - N/A   Clear
8:35 AM 35.6 °F 26.6 °F 30.2 °F 81% 30.19 in 10.0 mi North 13.8 mph 18.4 mph N/A   Clear
8:55 AM 35.6 °F 27.5 °F 30.2 °F 81% 30.20 in 10.0 mi North 11.5 mph 16.1 mph N/A   Clear
9:15 AM 37.4 °F 29.8 °F 30.2 °F 75% 30.20 in 10.0 mi North 11.5 mph - N/A   Clear
9:35 AM 37.4 °F 30.8 °F 30.2 °F 75% 30.20 in 10.0 mi North 9.2 mph - N/A   Clear
9:55 AM 39.2 °F 31.2 °F 30.2 °F 70% 30.20 in 10.0 mi North 13.8 mph 18.4 mph N/A   Clear
10:35 AM 41.0 °F 34.3 °F 30.2 °F 65% 30.19 in 10.0 mi North 11.5 mph 19.6 mph N/A   Scattered Clouds
10:55 AM 42.8 °F 37.0 °F 30.2 °F 61% 30.18 in 10.0 mi North 10.4 mph - N/A   Scattered Clouds
11:15 AM 42.8 °F 35.1 °F 30.2 °F 61% 30.18 in 10.0 mi North 16.1 mph 26.5 mph N/A   Clear
11:35 AM 44.6 °F 37.2 °F 30.2 °F 57% 30.18 in 10.0 mi NNE 17.3 mph 20.7 mph N/A   Clear
11:55 AM 46.4 °F 41.1 °F 32.0 °F 57% 30.17 in 10.0 mi North 11.5 mph 19.6 mph N/A   Clear
12:15 PM 44.6 °F 38.4 °F 30.2 °F 57% 30.17 in 10.0 mi North 12.7 mph 24.2 mph N/A   Scattered Clouds
12:35 PM 44.6 °F 39.2 °F 32.0 °F 61% 30.16 in 10.0 mi North 10.4 mph 19.6 mph N/A   Mostly Cloudy
12:55 PM 46.4 °F 41.5 °F 32.0 °F 57% 30.16 in 10.0 mi North 10.4 mph 20.7 mph N/A   Mostly Cloudy
1:15 PM 46.4 °F 41.9 °F 32.0 °F 57% 30.15 in 10.0 mi North 9.2 mph 18.4 mph N/A   Overcast
1:35 PM 46.4 °F 40.4 °F 32.0 °F 57% 30.13 in 10.0 mi North 13.8 mph 20.7 mph N/A   Overcast
1:55 PM 46.4 °F 42.4 °F 32.0 °F 57% 30.13 in 10.0 mi North 8.1 mph 23.0 mph N/A   Overcast
2:15 PM 46.4 °F 40.1 °F 32.0 °F 57% 30.13 in 10.0 mi North 15.0 mph 20.7 mph N/A   Overcast
2:35 PM 44.6 °F 37.8 °F 30.2 °F 57% 30.13 in 10.0 mi NNE 15.0 mph 21.9 mph N/A   Overcast
2:55 PM 44.6 °F 38.1 °F 32.0 °F 61% 30.13 in 10.0 mi NNE 13.8 mph 17.3 mph N/A   Overcast
3:15 PM 46.4 °F 41.1 °F 32.0 °F 57% 30.12 in 10.0 mi NNE 11.5 mph 18.4 mph N/A   Overcast
3:35 PM 46.4 °F 40.4 °F 32.0 °F 57% 30.12 in 10.0 mi North 13.8 mph 19.6 mph N/A   Overcast
3:55 PM 46.4 °F 40.1 °F 32.0 °F 57% 30.13 in 10.0 mi North 15.0 mph 20.7 mph N/A   Overcast
4:15 PM 46.4 °F 40.4 °F 32.0 °F 57% 30.12 in 10.0 mi North 13.8 mph - N/A   Overcast
4:35 PM 44.6 °F 39.2 °F 32.0 °F 61% 30.13 in 10.0 mi North 10.4 mph 20.7 mph N/A   Overcast
4:55 PM 44.6 °F 39.2 °F 30.2 °F 57% 30.13 in 10.0 mi North 10.4 mph 19.6 mph N/A   Overcast
5:15 PM 44.6 °F 38.1 °F 30.2 °F 57% 30.12 in 10.0 mi North 13.8 mph - N/A   Overcast
5:35 PM 44.6 °F 37.8 °F 30.2 °F 57% 30.12 in 10.0 mi North 15.0 mph 18.4 mph N/A   Overcast
5:55 PM 44.6 °F 38.4 °F 30.2 °F 57% 30.13 in 10.0 mi North 12.7 mph 20.7 mph N/A   Overcast
6:15 PM 44.6 °F 38.8 °F 30.2 °F 57% 30.13 in 10.0 mi North 11.5 mph 17.3 mph N/A   Overcast
6:35 PM 44.6 °F 38.4 °F 30.2 °F 57% 30.13 in 10.0 mi North 12.7 mph 18.4 mph N/A   Overcast
6:55 PM 44.6 °F 39.2 °F 30.2 °F 57% 30.13 in 10.0 mi North 10.4 mph - N/A   Overcast
7:15 PM 44.6 °F 40.2 °F 30.2 °F 57% 30.13 in 10.0 mi North 8.1 mph - N/A   Mostly Cloudy
7:35 PM 44.6 °F 38.4 °F 28.4 °F 53% 30.15 in 10.0 mi North 12.7 mph 18.4 mph N/A   Mostly Cloudy
7:55 PM 42.8 °F 37.5 °F 28.4 °F 57% 30.15 in 10.0 mi North 9.2 mph - N/A   Mostly Cloudy
8:15 PM 42.8 °F 36.6 °F 28.4 °F 57% 30.16 in 10.0 mi North 11.5 mph 16.1 mph N/A   Scattered Clouds
8:35 PM 42.8 °F 37.0 °F 28.4 °F 57% 30.15 in 10.0 mi North 10.4 mph 18.4 mph N/A   Clear
8:55 PM 42.8 °F 38.0 °F 28.4 °F 57% 30.15 in 10.0 mi North 8.1 mph - N/A   Clear
9:15 PM 41.0 °F 34.7 °F 28.4 °F 61% 30.15 in 10.0 mi North 10.4 mph - N/A   Clear
9:55 PM 41.0 °F 35.2 °F 28.4 °F 61% 30.15 in 10.0 mi North 9.2 mph - N/A   Clear
10:15 PM 41.0 °F 35.2 °F 28.4 °F 61% 30.15 in 10.0 mi North 9.2 mph - N/A   Clear
10:35 PM 41.0 °F 35.2 °F 28.4 °F 61% 30.15 in 10.0 mi North 9.2 mph - N/A   Clear
10:55 PM 41.0 °F 35.8 °F 28.4 °F 61% 30.15 in 10.0 mi North 8.1 mph - N/A   Clear
11:15 PM 41.0 °F 35.8 °F 28.4 °F 61% 30.15 in 10.0 mi North 8.1 mph - N/A   Clear
11:35 PM 41.0 °F 36.4 °F 28.4 °F 61% 30.15 in 10.0 mi North 6.9 mph - N/A   Clear
11:55 PM 39.2 °F 33.6 °F 28.4 °F 65% 30.14 in 10.0 mi North 8.1 mph - N/A   Clear